Location: Beaurevoir
(49.9971°N, 3.3085°E)
Time: 21:44:35
(UTC+00:00)

Genesis I - Pass Details

Date: 23 May 2024
Orbit: 433 x 467 km, 64.5° (Epoch: 14 June)

Event Time Altitude Azimuth Distance (km) Brightness Sun altitude
Exits shadow 02:06:59 19° 186° (S) 1,148 4.4 -12.6°
Maximum altitude 02:09:10 41° 124° (ESE) 664 3.7 -12.4°
Drops below altitude 10° 02:12:32 10° 52° (NE) 1,599 7.0 -12.0°
Sets 02:14:44 0° 46° (NE) 2,485 8.6 -11.8°
